SCP
0 0 0 0 -0 0 0 0 -0 0 0 0 0 0 -0 0 1 1 -0 -0 -1 -1 -1 -1 -1 -1 -1 -2 -2 -1 -1 -1
0 0 0 0 0 0 -0 -0 0 0 0 0 0 0 0 1 1 1 1 0 -1 -1 -1 -1 -1 -1 -1 -1 -1 -1 -1 -1
0 0 0 0 0 -0 -0 -0 -0 0 -0 0 0 -0 1 1 1 1 1 1 0 -0 -1 -0 -0 -1 -0 -1 -1 -1 -1 -1
0 0 0 -0 -0 -0 -0 -0 0 0 0 0 -0 -1 1 1 2 2 2 1 1 0 -0 -0 -0 -0 -0 -0 -0 -0 -0 -0
0 0 -0 -0 0 -0 0 0 0 0 0 0 0 -0 0 2 2 2 2 2 1 1 1 0 -0 -0 -0 -0 -0 -0 -0 -0
0 0 -0 0 0 -0 -0 0 0 0 0 0 0 0 1 2 2 2 2 2 1 1 1 1 1 -0 -0 0 0 0 -0 -0
0 0 0 -0 -0 -0 -0 -0 -0 0 0 0 0 0 0 2 3 3 3 1 1 1 1 1 1 0 0 -0 0 0 0 -0
0 0 0 -0 -0 -0 -0 0 -0 -0 0 0 0 0 0 2 2 2 2 2 1 1 1 1 1 1 0 0 0 0 0 0
0 0 0 -0 -0 -0 -0 -0 -0 -0 0 0 0 1 1 2 2 1 2 2 2 1 1 1 1 1 1 1 0 0 0 0
0 0 0 0 -0 -0 -0 -0 -0 -0 -0 -0 0 0 2 3 3 1 2 2 2 1 1 1 1 1 1 1 0 0 0 0
0 0 0 0 0 -0 -0 -0 -0 -0 -0 -0 0 0 0 4 7 2 1 2 2 1 1 1 1 1 1 0 0 0 0 0
0 0 0 0 0 0 -0 -0 -0 -0 -0 -0 0 0 0 1 6 4 2 2 2 2 1 1 1 1 1 0 0 0 0 0
0 0 0 0 0 -0 -0 -0 -0 -0 -0 -0 -0 0 0 0 1 5 4 2 2 3 2 1 1 1 1 1 0 0 0 0
0 0 0 0 -0 -0 -0 -0 -0 -0 -0 -0 -0 0 0 0 0 0 4 3 3 3 2 1 1 1 1 1 0 0 0 0
0 0 0 0 0 -0 -0 0 -0 -0 -0 -0 -0 0 0 0 0 0 1 4 2 3 3 2 1 1 1 1 1 0 0 0
0 0 0 0 0 0 0 -0 -0 -0 -0 -0 -0 0 0 0 0 0 0 2 3 4 4 3 3 2 1 1 0 0 0 0
0 0 0 0 0 0 0 0 -0 -0 -0 -0 -0 0 0 0 0 0 0 1 3 4 3 4 4 3 2 1 0 0 0 0
0 0 0 0 0 0 0 0 0 0 0 -0 -0 -0 0 0 0 0 0 1 3 4 4 5 4 4 2 1 1 0 0 0
0 0 0 0 0 0 0 0 0 0 0 0 -0 -0 0 0 0 0 0 1 3 3 3 4 4 3 1 0 0 0 0 0
0 0 0 0 0 0 0 0 0 0 0 0 0 0 0 0 0 0 0 0 2 3 3 4 4 2 1 1 0 0 0 0
Wind_Speed_500mb
8 7 12 10 5 5 15 33 12 18 41 17 16 30 26 27 44 66 70 75 77 78 72 65 61 61 63 64 62 57 52 48
8 14 13 11 5 16 20 16 34 35 16 33 25 37 37 27 49 67 76 78 78 80 73 66 61 61 64 65 64 60 55 52
0 12 10 9 11 19 13 16 22 40 13 42 33 56 41 28 53 63 78 81 81 81 74 66 60 59 61 66 64 62 59 56
8 11 5 9 15 9 4 20 46 21 28 27 25 69 66 31 53 60 74 83 82 81 76 68 60 56 57 63 62 60 60 59
7 6 6 5 28 9 14 17 18 40 18 34 42 78 76 45 55 56 74 85 86 82 77 70 64 58 56 59 60 60 59 59
5 8 10 6 41 31 36 32 37 26 12 26 81 76 73 45 55 63 74 88 89 87 82 75 69 62 58 57 57 59 59 59
7 10 15 30 20 33 45 29 28 45 57 67 62 66 49 47 58 70 83 91 93 92 89 82 75 67 61 57 55 56 59 60
5 9 15 25 36 50 33 47 23 57 60 62 59 55 40 49 67 80 92 97 97 96 93 89 83 77 69 65 62 59 60 62
12 21 33 29 30 46 37 21 46 54 68 67 64 56 47 49 65 71 71 92 98 97 96 93 90 86 79 75 70 64 60 59
12 40 35 30 43 22 39 46 54 47 55 60 58 57 53 60 65 73 73 84 95 91 96 95 93 90 86 82 77 73 67 63
37 45 47 40 26 31 41 50 45 43 46 51 56 57 51 62 67 79 80 88 94 88 97 96 96 93 90 87 82 77 72 67
23 29 25 17 28 36 38 54 48 45 46 47 51 56 51 39 72 80 83 86 91 89 93 101 99 97 95 91 85 79 75 70
10 19 15 20 12 16 48 57 55 52 49 44 52 58 51 46 46 84 85 86 88 94 91 101 102 100 97 93 88 84 80 73
11 12 19 7 26 17 58 38 60 59 58 51 49 55 57 45 39 57 85 86 81 84 100 102 100 100 97 95 92 88 84 77
15 10 12 9 22 18 60 56 49 60 60 53 50 49 58 49 40 36 60 87 83 82 91 103 103 100 97 98 97 92 88 81
14 13 11 16 27 16 46 51 49 57 65 64 55 61 54 55 45 45 46 71 87 87 91 100 104 102 99 99 97 92 91 87
25 16 10 27 37 33 46 49 52 50 61 60 67 66 65 52 50 46 47 54 72 87 96 101 104 109 107 106 95 88 88 89
17 11 17 23 46 39 36 35 58 56 57 66 66 63 67 44 45 45 45 55 67 80 92 102 102 94 101 103 96 86 82 83
18 33 10 11 30 11 34 28 52 59 59 61 39 35 40 32 31 41 43 56 67 78 87 92 100 101 96 101 89 84 82 83
29 14 13 12 23 5 17 27 23 45 52 55 46 47 46 38 26 32 39 57 72 78 84 88 104 101 102 103 97 97 87 85
Wind_Direction_500mb
102 128 205 231 222 124 320 335 355 337 323 291 292 306 304 274 206 190 188 185 183 182 185 187 186 187 188 189 189 190 189 184
101 221 255 199 152 347 350 338 347 333 309 312 313 311 301 274 212 191 191 186 185 184 186 187 187 188 190 192 193 194 194 190
250 255 278 327 330 344 327 301 321 323 292 302 326 354 315 261 207 193 194 188 186 187 186 188 189 189 191 192 194 195 194 193
243 249 327 307 294 299 320 348 336 342 319 299 335 343 342 282 208 201 199 191 189 188 188 188 191 191 190 191 193 194 193 192
280 272 10 309 12 6 343 344 316 338 325 289 304 334 325 303 214 208 202 195 192 190 190 190 192 192 191 192 193 193 193 192
301 338 287 345 353 344 332 309 309 309 300 310 319 326 309 282 229 213 204 199 196 193 191 192 193 194 193 193 193 193 193 193
282 332 295 323 335 332 328 303 317 305 295 304 311 320 309 262 227 212 204 204 199 196 195 194 195 194 194 195 194 193 194 194
220 278 286 310 324 318 327 316 313 326 324 325 320 310 295 259 229 212 207 205 204 200 199 196 196 197 195 195 195 194 194 196
279 308 312 304 307 315 307 303 311 309 313 318 313 306 287 266 233 218 212 208 206 204 202 199 198 198 198 198 197 196 197 198
287 315 320 308 309 296 291 293 304 305 307 308 307 298 283 261 238 222 215 212 210 209 206 204 203 203 202 201 200 198 197 199
302 311 310 305 288 291 295 318 298 299 310 297 300 298 302 263 255 228 222 215 212 211 210 208 208 206 206 206 204 203 201 202
305 304 293 275 295 310 306 310 306 318 318 309 300 301 308 296 246 237 228 222 222 215 214 213 212 212 210 210 209 208 207 207
282 296 294 317 307 292 305 308 310 308 313 311 297 295 301 308 274 248 236 229 227 226 217 217 217 216 216 215 213 213 212 212
270 278 281 327 297 273 306 292 305 307 312 312 303 296 294 301 290 254 244 232 231 228 225 221 220 219 219 219 219 217 217 216
300 242 278 218 293 282 310 299 289 299 300 305 305 300 286 294 295 277 247 240 231 229 228 225 222 221 222 223 223 221 221 219
264 299 299 291 284 284 297 294 287 288 294 295 301 303 298 287 293 276 266 242 238 236 228 224 223 223 223 226 228 226 224 221
284 278 320 300 286 286 282 281 286 278 284 287 295 300 303 288 293 283 260 248 243 234 226 220 219 221 222 226 227 228 224 223
282 295 302 293 289 283 294 277 274 274 280 282 292 308 304 299 288 285 252 247 240 236 228 223 221 223 225 228 228 228 225 224
289 316 231 291 286 342 312 285 288 294 284 288 302 328 330 313 295 286 245 234 238 233 230 225 221 219 221 225 224 227 226 224
306 332 302 69 292 357 343 354 354 357 0 351 340 355 357 348 328 311 252 227 242 235 230 225 220 217 215 220 219 221 218 220
Wind_Speed_850mb
8 7 12 10 5 5 15 33 12 18 41 17 16 30 26 27 44 66 70 75 77 78 72 65 61 61 63 64 62 57 52 48
8 14 13 11 5 16 20 16 34 35 16 33 25 37 37 27 49 67 76 78 78 80 73 66 61 61 64 65 64 60 55 52
0 12 10 9 11 19 13 16 22 40 13 42 33 56 41 28 53 63 78 81 81 81 74 66 60 59 61 66 64 62 59 56
8 11 5 9 15 9 4 20 46 21 28 27 25 69 66 31 53 60 74 83 82 81 76 68 60 56 57 63 62 60 60 59
7 6 6 5 28 9 14 17 18 40 18 34 42 78 76 45 55 56 74 85 86 82 77 70 64 58 56 59 60 60 59 59
5 8 10 6 41 31 36 32 37 26 12 26 81 76 73 45 55 63 74 88 89 87 82 75 69 62 58 57 57 59 59 59
7 10 15 30 20 33 45 29 28 45 57 67 62 66 49 47 58 70 83 91 93 92 89 82 75 67 61 57 55 56 59 60
5 9 15 25 36 50 33 47 23 57 60 62 59 55 40 49 67 80 92 97 97 96 93 89 83 77 69 65 62 59 60 62
12 21 33 29 30 46 37 21 46 54 68 67 64 56 47 49 65 71 71 92 98 97 96 93 90 86 79 75 70 64 60 59
12 40 35 30 43 22 39 46 54 47 55 60 58 57 53 60 65 73 73 84 95 91 96 95 93 90 86 82 77 73 67 63
37 45 47 40 26 31 41 50 45 43 46 51 56 57 51 62 67 79 80 88 94 88 97 96 96 93 90 87 82 77 72 67
23 29 25 17 28 36 38 54 48 45 46 47 51 56 51 39 72 80 83 86 91 89 93 101 99 97 95 91 85 79 75 70
10 19 15 20 12 16 48 57 55 52 49 44 52 58 51 46 46 84 85 86 88 94 91 101 102 100 97 93 88 84 80 73
11 12 19 7 26 17 58 38 60 59 58 51 49 55 57 45 39 57 85 86 81 84 100 102 100 100 97 95 92 88 84 77
15 10 12 9 22 18 60 56 49 60 60 53 50 49 58 49 40 36 60 87 83 82 91 103 103 100 97 98 97 92 88 81
14 13 11 16 27 16 46 51 49 57 65 64 55 61 54 55 45 45 46 71 87 87 91 100 104 102 99 99 97 92 91 87
25 16 10 27 37 33 46 49 52 50 61 60 67 66 65 52 50 46 47 54 72 87 96 101 104 109 107 106 95 88 88 89
17 11 17 23 46 39 36 35 58 56 57 66 66 63 67 44 45 45 45 55 67 80 92 102 102 94 101 103 96 86 82 83
18 33 10 11 30 11 34 28 52 59 59 61 39 35 40 32 31 41 43 56 67 78 87 92 100 101 96 101 89 84 82 83
29 14 13 12 23 5 17 27 23 45 52 55 46 47 46 38 26 32 39 57 72 78 84 88 104 101 102 103 97 97 87 85
Wind_Direction_850mb
102 128 205 231 222 124 320 335 355 337 323 291 292 306 304 274 206 190 188 185 183 182 185 187 186 187 188 189 189 190 189 184
101 221 255 199 152 347 350 338 347 333 309 312 313 311 301 274 212 191 191 186 185 184 186 187 187 188 190 192 193 194 194 190
250 255 278 327 330 344 327 301 321 323 292 302 326 354 315 261 207 193 194 188 186 187 186 188 189 189 191 192 194 195 194 193
243 249 327 307 294 299 320 348 336 342 319 299 335 343 342 282 208 201 199 191 189 188 188 188 191 191 190 191 193 194 193 192
280 272 10 309 12 6 343 344 316 338 325 289 304 334 325 303 214 208 202 195 192 190 190 190 192 192 191 192 193 193 193 192
301 338 287 345 353 344 332 309 309 309 300 310 319 326 309 282 229 213 204 199 196 193 191 192 193 194 193 193 193 193 193 193
282 332 295 323 335 332 328 303 317 305 295 304 311 320 309 262 227 212 204 204 199 196 195 194 195 194 194 195 194 193 194 194
220 278 286 310 324 318 327 316 313 326 324 325 320 310 295 259 229 212 207 205 204 200 199 196 196 197 195 195 195 194 194 196
279 308 312 304 307 315 307 303 311 309 313 318 313 306 287 266 233 218 212 208 206 204 202 199 198 198 198 198 197 196 197 198
287 315 320 308 309 296 291 293 304 305 307 308 307 298 283 261 238 222 215 212 210 209 206 204 203 203 202 201 200 198 197 199
302 311 310 305 288 291 295 318 298 299 310 297 300 298 302 263 255 228 222 215 212 211 210 208 208 206 206 206 204 203 201 202
305 304 293 275 295 310 306 310 306 318 318 309 300 301 308 296 246 237 228 222 222 215 214 213 212 212 210 210 209 208 207 207
282 296 294 317 307 292 305 308 310 308 313 311 297 295 301 308 274 248 236 229 227 226 217 217 217 216 216 215 213 213 212 212
270 278 281 327 297 273 306 292 305 307 312 312 303 296 294 301 290 254 244 232 231 228 225 221 220 219 219 219 219 217 217 216
300 242 278 218 293 282 310 299 289 299 300 305 305 300 286 294 295 277 247 240 231 229 228 225 222 221 222 223 223 221 221 219
264 299 299 291 284 284 297 294 287 288 294 295 301 303 298 287 293 276 266 242 238 236 228 224 223 223 223 226 228 226 224 221
284 278 320 300 286 286 282 281 286 278 284 287 295 300 303 288 293 283 260 248 243 234 226 220 219 221 222 226 227 228 224 223
282 295 302 293 289 283 294 277 274 274 280 282 292 308 304 299 288 285 252 247 240 236 228 223 221 223 225 228 228 228 225 224
289 316 231 291 286 342 312 285 288 294 284 288 302 328 330 313 295 286 245 234 238 233 230 225 221 219 221 225 224 227 226 224
306 332 302 69 292 357 343 354 354 357 0 351 340 355 357 348 328 311 252 227 242 235 230 225 220 217 215 220 219 221 218 220